Location: G�ppingen
(48.7000°N, 9.6670°E)
Time: 12:01:36
(UTC+01:00)

Amateur Radio Satellites - All Passes

Search period start: 18 December 2017 11:31
Search period end: 19 December 2017 11:31
Location: G�ppingen, 48.7000°N, 9.6670°E

Satellite Date Start Highest point End Downlink Frequencies (MHz)
Time Altitude Azimuth
EO-88 18 Dec 11:35:58 11:38:45 21° 295° (WNW) 11:41:31 145.990 - 145.960
ESTCUBE 1 18 Dec 11:36:30 11:40:53 45° 99° (E) 11:45:14 437.505/2401.250
DUCHIFAT 1 18 Dec 11:40:12 11:44:22 81° 256° (WSW) 11:48:33 145.980
QB50P2 18 Dec 11:41:39 11:45:45 55° 260° (W) 11:49:53 145.880/145.840
NO-84 18 Dec 11:42:03 11:45:38 90° 37° (NE) 11:49:30 435.350 FM
LO-87 18 Dec 11:53:09 11:56:43 84° 285° (WNW) 12:00:16 145.935 - 145.965
AO-91 18 Dec 11:53:52 11:57:24 23° 66° (ENE) 12:00:41 145.960
YUBILEINY 18 Dec 11:55:26 12:01:39 20° 53° (NE) 12:07:49 435.215
ISS 18 Dec 12:05:26 12:08:44 87° 344° (NNW) 12:12:02 437.550
BUGSAT 1 18 Dec 12:05:30 12:09:21 47° 71° (ENE) 12:13:14 437.445
NANOSAT C BR1 18 Dec 12:09:26 12:13:16 35° 263° (W) 12:17:08 145.865
EO-79 18 Dec 12:28:16 12:31:30 21° 267° (W) 12:34:45 145.935-145.965
RS-15 18 Dec 12:29:21 12:37:24 21° 97° (E) 12:45:24 29.354- 29.394
Gurwin Techsat 1B 18 Dec 12:35:32 12:40:36 47° 68° (ENE) 12:45:42 435.225
nSIGHT-1 18 Dec 12:45:40 12:48:50 54° 350° (N) 12:52:01 .
VELOX 1 18 Dec 12:52:41 12:56:53 41° 98° (E) 13:01:01 145.980
POLYITAN 1 18 Dec 12:54:04 12:55:55 13° 272° (W) 12:57:46 437.675
AO-7 18 Dec 12:54:37 13:01:24 29° 48° (NE) 13:08:11 .
Oscar 19 18 Dec 13:01:28 13:06:37 83° 255° (WSW) 13:11:50 437.125/150
SPROUT 18 Dec 13:02:45 13:07:02 87° 104° (ESE) 13:11:17 437.525
ESTCUBE 1 18 Dec 13:13:47 13:17:27 24° 297° (WNW) 13:21:05 437.505/2401.250
NO-84 18 Dec 13:19:57 13:22:34 18° 228° (SW) 13:25:18 435.350 FM
50 SAT 18 Dec 13:20:05 13:21:52 14° 92° (E) 13:23:38 437.505
AO-91 18 Dec 13:29:14 13:33:42 44° 260° (W) 13:37:44 145.960
DX 1 18 Dec 13:36:06 13:39:47 26° 95° (E) 13:43:26 434.975-435.025
ISS 18 Dec 13:42:12 13:45:25 48° 359° (N) 13:48:38 437.550
BUGSAT 1 18 Dec 13:42:15 13:44:59 17° 269° (W) 13:47:42 437.445
YUBILEINY 18 Dec 13:51:21 14:00:14 75° 78° (ENE) 14:09:00 435.215
M-CUBED/EXP-1 PRIME 18 Dec 14:12:34 14:16:53 47° 63° (ENE) 14:21:21 437.505
Gurwin Techsat 1B 18 Dec 14:16:13 14:20:45 28° 266° (W) 14:25:20 435.225
nSIGHT-1 18 Dec 14:22:08 14:25:19 55° 10° (N) 14:28:30 .
ITAMSAT 1 18 Dec 14:22:42 14:27:30 39° 65° (ENE) 14:32:18 435.822/435.867
VELOX 1 18 Dec 14:29:31 14:33:08 25° 297° (WNW) 14:36:42 145.980
RS-15 18 Dec 14:35:27 14:47:40 71° 120° (ESE) 14:59:42 29.354- 29.394
SPROUT 18 Dec 14:40:24 14:42:17 13° 303° (WNW) 14:44:10 437.525
Oscar 19 18 Dec 14:44:39 14:46:46 12° 274° (W) 14:48:53 437.125/150
AO-7 18 Dec 14:44:58 14:53:18 86° 250° (WSW) 15:01:43 .
BEESAT 18 Dec 14:44:59 14:47:49 16° 89° (E) 14:50:39 436.000
UKube-1 18 Dec 14:47:20 14:51:41 85° 105° (ESE) 14:55:59 .
50 SAT 18 Dec 14:51:01 14:53:57 35° 289° (WNW) 14:56:50 437.505
SO-50 18 Dec 15:01:31 15:05:53 58° 124° (ESE) 15:10:21 436.795
DX 1 18 Dec 15:12:03 15:16:02 36° 293° (WNW) 15:20:00 434.975-435.025
ITUPSAT 1 18 Dec 15:15:11 15:19:19 28° 95° (E) 15:23:26 437.325
ISS 18 Dec 15:18:50 15:22:08 80° 19° (NNE) 15:25:25 437.550
CUBESAT XI-V 18 Dec 15:22:54 15:25:33 15° 88° (E) 15:28:11 437.345
MOZHAYETS 4 18 Dec 15:24:32 15:29:04 52° 100° (E) 15:33:35
DOVE 4 18 Dec 15:29:17 15:33:53 33° 66° (ENE) 15:38:19 437.250
O/OREOS (USA 219) 18 Dec 15:41:14 15:43:43 14° 42° (NE) 15:46:11 437.305
M-CUBED/EXP-1 PRIME 18 Dec 15:47:47 15:51:26 24° 262° (W) 15:55:12 437.505
YUBILEINY 18 Dec 15:49:07 15:56:11 28° 281° (W) 16:03:13 435.215
nSIGHT-1 18 Dec 15:58:25 16:01:32 49° 210° (SSW) 16:04:40 .
ITAMSAT 1 18 Dec 16:02:19 16:07:00 34° 264° (W) 16:11:44 435.822/435.867
XW-2C 18 Dec 16:02:21 16:03:14 11° 58° (ENE) 16:04:07 145.795 - 145.815
CUTE-I 18 Dec 16:18:48 16:22:47 22° 58° (ENE) 16:26:45 437.470
BEESAT 18 Dec 16:21:21 16:26:07 73° 288° (WNW) 16:30:52 436.000
UKube-1 18 Dec 16:24:58 16:27:04 13° 303° (WNW) 16:29:09 .
NUDT-PHONESAT 18 Dec 16:36:56 16:39:17 16° 62° (ENE) 16:41:40 437.300
AO-7 18 Dec 16:41:15 16:47:14 21° 271° (W) 16:53:17 .
LilacSat-2 18 Dec 16:41:18 16:44:35 27° 67° (ENE) 16:47:53 437.200
SO-50 18 Dec 16:42:46 16:46:39 28° 325° (NW) 16:50:37 436.795
KKS-1 18 Dec 16:45:13 16:48:12 17° 91° (E) 16:51:09 437.445
KAITUO 1B 18 Dec 16:47:32 16:50:28 22° 65° (ENE) 16:53:26 145.475/437.950
RS-15 18 Dec 16:48:59 17:00:57 52° 327° (NNW) 17:12:41 29.354- 29.394
XW-2D 18 Dec 16:49:43 16:53:07 32° 68° (ENE) 16:56:33 145.860 - 145.880
HO-68 18 Dec 16:50:54 16:56:51 29° 54° (NE) 17:02:46 435.675
ITUPSAT 1 18 Dec 16:52:47 16:57:15 40° 293° (WNW) 17:01:41 437.325
ISS 18 Dec 16:55:37 16:58:22 24° 218° (SW) 17:01:06 437.550
CUBESAT XI-V 18 Dec 16:58:44 17:03:29 75° 286° (WNW) 17:08:09 437.345
MOZHAYETS 4 18 Dec 17:02:20 17:05:54 22° 298° (WNW) 17:09:27
XW-2B 18 Dec 17:05:29 17:09:07 44° 71° (ENE) 17:12:47 145.730 - 145.750
DOVE 4 18 Dec 17:06:38 17:11:29 39° 263° (W) 17:16:10 437.250
XW-2F 18 Dec 17:13:42 17:17:23 52° 72° (ENE) 17:21:06 145.980 - 146.000
STARS 18 Dec 17:16:34 17:19:04 15° 90° (E) 17:21:34 437.465
O/OREOS (USA 219) 18 Dec 17:19:23 17:23:55 79° 62° (ENE) 17:28:24 437.305
XW-2C 18 Dec 17:32:57 17:36:46 87° 255° (WSW) 17:40:38 145.795 - 145.815
SEEDS 18 Dec 17:33:05 17:36:01 18° 62° (ENE) 17:38:58 437.485
AAUSAT CUBESAT 2 18 Dec 17:41:20 17:42:13 11° 56° (ENE) 17:43:07 437.432
PCSat 18 Dec 17:43:20 17:48:12 35° 113° (ESE) 17:53:05 145.827
UWE-3 18 Dec 17:51:13 17:53:44 16° 60° (ENE) 17:56:16 435.000/436.395/437.385
CUTE-I 18 Dec 17:56:59 18:02:20 70° 257° (WSW) 18:07:43 437.470
CUBEBUG 2 18 Dec 17:59:09 18:02:47 30° 67° (ENE) 18:06:25 437.445
BEESAT 18 Dec 18:01:12 18:03:04 12° 307° (NW) 18:04:56 436.000
CUTE 1.7 + AOD 2 18 Dec 18:02:54 18:07:03 53° 72° (ENE) 18:11:15 437.475
ZACube-1 18 Dec 18:07:19 18:09:16 13° 58° (ENE) 18:11:12 437.345
NUDT-PHONESAT 18 Dec 18:09:11 18:12:46 48° 261° (W) 18:16:25 437.300
LilacSat-2 18 Dec 18:15:28 18:18:48 28° 265° (W) 18:22:10 437.200
Oscar 11 18 Dec 18:20:06 18:21:34 12° 56° (NE) 18:23:02 .
KKS-1 18 Dec 18:20:45 18:25:07 57° 289° (WNW) 18:29:26 437.445
KAITUO 1B 18 Dec 18:20:48 18:24:15 34° 263° (W) 18:27:45 145.475/437.950
XW-2D 18 Dec 18:24:13 18:27:19 23° 266° (W) 18:30:28 145.860 - 145.880
SO-50 18 Dec 18:26:45 18:28:37 12° 349° (NNW) 18:30:30 436.795
HO-68 18 Dec 18:36:48 18:44:00 74° 255° (WSW) 18:51:13 435.675
AO-73 18 Dec 18:37:07 18:40:17 22° 63° (ENE) 18:43:29 145.935
CUBESAT XI-V 18 Dec 18:38:11 18:40:02 12° 305° (NW) 18:41:52 437.345
BEESAT 3 18 Dec 18:40:09 18:42:50 18° 113° (ESE) 18:45:32 437.485
XW-2B 18 Dec 18:40:58 18:43:31 17° 269° (W) 18:46:04 145.730 - 145.750
XW-2F 18 Dec 18:49:38 18:51:48 15° 270° (W) 18:53:59 145.980 - 146.000
STARS 18 Dec 18:51:31 18:55:52 66° 287° (WNW) 19:00:10 437.465
O/OREOS (USA 219) 18 Dec 19:00:33 19:02:40 13° 262° (W) 19:04:46 437.305
STRAND 1 18 Dec 19:03:11 19:07:21 25° 93° (E) 19:11:29 437.568
RS-15 18 Dec 19:05:46 19:16:50 37° 0° (N) 19:27:29 29.354- 29.394
SEEDS 18 Dec 19:07:09 19:11:19 55° 260° (W) 19:15:31 437.485
FO-29 18 Dec 19:08:57 19:11:51 13° 79° (E) 19:14:37 435.910
XW-2A 18 Dec 19:10:48 19:14:09 76° 76° (ENE) 19:17:33 145.665 - 145.685
AAUSAT CUBESAT 2 18 Dec 19:12:44 19:16:55 78° 75° (ENE) 19:21:08 437.432
UWE-3 18 Dec 19:25:39 19:29:45 62° 260° (W) 19:33:53 435.000/436.395/437.385
PCSat 18 Dec 19:26:16 19:31:29 47° 313° (NW) 19:36:44 145.827
BEESAT 2 18 Dec 19:30:36 19:33:13 17° 113° (ESE) 19:35:53 435.950
CUBEBUG 2 18 Dec 19:35:46 19:39:24 29° 265° (W) 19:43:01 437.445
DELFI C3 18 Dec 19:36:38 19:38:33 13° 60° (ENE) 19:40:29 145.870
CUTE 1.7 + AOD 2 18 Dec 19:40:17 19:43:12 18° 270° (W) 19:46:08 437.475
ZACube-1 18 Dec 19:40:48 19:44:56 80° 255° (WSW) 19:49:08 437.345
CUTE-I 18 Dec 19:42:18 19:43:21 11° 276° (W) 19:44:24 437.470
Oscar 11 18 Dec 19:52:38 19:56:57 81° 77° (ENE) 20:01:20 .
SO-50 18 Dec 20:09:00 20:11:04 13° 14° (NNE) 20:13:11 436.795
AO-73 18 Dec 20:12:21 20:16:16 42° 262° (W) 20:20:17 145.935
BEESAT 3 18 Dec 20:16:00 20:19:58 61° 312° (NW) 20:23:55 437.485
AO-85 18 Dec 20:16:33 20:18:06 12° 109° (ESE) 20:19:41 145.980
Max Valier Satellite 18 Dec 20:25:24 20:28:26 25° 67° (ENE) 20:31:30 145.860
HO-68 18 Dec 20:29:02 20:32:58 15° 275° (W) 20:36:56 435.675
STRAND 1 18 Dec 20:41:52 20:46:48 50° 291° (WNW) 20:51:42 437.568
EO-88 18 Dec 20:42:59 20:46:06 27° 67° (ENE) 20:49:14 145.990 - 145.960
AAUSAT CUBESAT 2 18 Dec 20:51:22 20:52:55 12° 273° (W) 20:54:27 437.432
FO-29 18 Dec 20:51:32 20:58:27 71° 102° (ESE) 21:04:27 435.910
BEESAT 2 18 Dec 21:06:30 21:10:30 64° 311° (NW) 21:14:34 435.950
ESTCUBE 1 18 Dec 21:07:31 21:07:53 10° 53° (NE) 21:08:16 437.505/2401.250
DELFI C3 18 Dec 21:08:45 21:12:44 74° 256° (WSW) 21:16:45 145.870
TIGRISAT 18 Dec 21:09:23 21:12:05 16° 90° (E) 21:14:48 435.000
PCSat 18 Dec 21:13:00 21:16:16 16° 337° (NNW) 21:19:32 145.827
UNISAT 6 18 Dec 21:13:33 21:16:42 19° 91° (E) 21:19:51 437.425
RS-15 18 Dec 21:20:51 21:32:37 53° 33° (NNE) 21:43:44 29.354- 29.394
Oscar 11 18 Dec 21:32:03 21:33:42 12° 273° (W) 21:35:21 .
SO-50 18 Dec 21:48:49 21:52:57 31° 37° (NE) 21:57:09 436.795
AO-85 18 Dec 21:53:47 21:57:45 84° 308° (NW) 22:02:00 145.980
BEESAT 3 18 Dec 21:55:56 21:58:16 15° 333° (NNW) 22:00:36 437.485
Max Valier Satellite 18 Dec 21:59:00 22:02:10 28° 265° (W) 22:05:24 145.860
PRISM 18 Dec 22:07:32 22:10:23 18° 92° (E) 22:13:12 437.425
EO-88 18 Dec 22:16:38 22:19:43 25° 266° (W) 22:22:47 145.990 - 145.960
FALCONSAT 3 18 Dec 22:18:32 22:19:07 10° 176° (S) 22:19:43 435.103
SPROUT 18 Dec 22:25:58 22:28:11 14° 58° (ENE) 22:30:24 437.525
LO-87 18 Dec 22:32:11 22:35:42 67° 74° (ENE) 22:39:13 145.935 - 145.965
FO-29 18 Dec 22:37:15 22:42:48 27° 305° (NW) 22:47:52 435.910
ESTCUBE 1 18 Dec 22:39:19 22:43:48 65° 72° (ENE) 22:48:19 437.505/2401.250
TIGRISAT 18 Dec 22:44:51 22:49:10 63° 287° (WNW) 22:53:33 435.000
AIST 2D 18 Dec 22:45:42 22:48:07 17° 92° (E) 22:50:31 435.315
BEESAT 2 18 Dec 22:46:31 22:49:00 15° 333° (NNW) 22:51:30 435.950
UNISAT 6 18 Dec 22:49:26 22:53:41 52° 289° (WNW) 22:58:00 437.425
PCSat 18 Dec 23:00:41 23:02:07 11° 3° (N) 23:03:32 145.827
DUCHIFAT 1 18 Dec 23:21:51 23:23:34 12° 88° (E) 23:25:17 145.980
QB50P2 18 Dec 23:23:05 23:26:02 18° 91° (E) 23:28:59 145.880/145.840
SO-50 18 Dec 23:29:07 23:33:40 53° 237° (WSW) 23:38:15 436.795
RS-15 18 Dec 23:33:59 23:45:40 67° 241° (WSW) 23:56:42 29.354- 29.394
AO-85 18 Dec 23:35:54 23:38:51 19° 332° (NNW) 23:41:57 145.980
PRISM 18 Dec 23:41:58 23:45:55 48° 290° (WNW) 23:49:50 437.425
NANOSAT C BR1 18 Dec 23:49:28 23:53:02 26° 95° (E) 23:56:36 145.865
VELOX 1 18 Dec 23:53:07 23:57:29 59° 72° (ENE) 00:01:53 145.980
SPROUT 18 Dec 23:59:16 00:03:30 78° 258° (WSW) 00:07:46 437.525
EO-79 19 Dec 00:07:34 00:11:38 45° 99° (E) 00:15:41 145.935-145.965
UKube-1 19 Dec 00:11:14 00:13:51 16° 59° (ENE) 00:16:30 .
AIST 2D 19 Dec 00:18:07 00:21:26 37° 290° (WNW) 00:24:44 435.315
ESTCUBE 1 19 Dec 00:18:13 00:21:03 16° 271° (W) 00:23:54 437.505/2401.250
POLYITAN 1 19 Dec 00:31:44 00:36:00 80° 105° (ESE) 00:40:14 437.675
DX 1 19 Dec 00:34:52 00:38:55 38° 67° (ENE) 00:42:59 434.975-435.025
PCSat 19 Dec 00:43:52 00:47:47 20° 30° (NNE) 00:51:41 145.827
Gurwin Techsat 1B 19 Dec 00:49:21 00:51:50 13° 86° (E) 00:54:20 435.225
DUCHIFAT 1 19 Dec 00:55:32 00:59:44 76° 286° (WNW) 01:03:56 145.980
MOZHAYETS 4 19 Dec 00:56:19 00:58:00 12° 55° (NE) 00:59:42
QB50P2 19 Dec 00:58:00 01:02:06 50° 289° (WNW) 01:06:13 145.880/145.840
YUBILEINY 19 Dec 01:04:41 01:09:59 18° 73° (ENE) 01:15:18 435.215
Oscar 19 19 Dec 01:09:28 01:13:48 26° 93° (E) 01:18:06 437.125/150
BEESAT 3 19 Dec 01:15:25 01:16:53 12° 21° (NNE) 01:18:20 437.485
AO-91 19 Dec 01:15:40 01:18:15 20° 93° (E) 01:20:47 145.960
BUGSAT 1 19 Dec 01:18:07 01:22:03 47° 100° (E) 01:25:59 437.445
50 SAT 19 Dec 01:19:44 01:22:53 67° 257° (WSW) 01:26:03 437.505
AO-85 19 Dec 01:20:39 01:21:02 10° 357° (N) 01:21:26 145.980
NANOSAT C BR1 19 Dec 01:24:58 01:28:48 34° 292° (WNW) 01:32:36 145.865
VELOX 1 19 Dec 01:31:21 01:34:18 17° 269° (W) 01:37:15 145.980
EO-79 19 Dec 01:43:54 01:47:07 22° 297° (WNW) 01:50:20 145.935-145.965
UKube-1 19 Dec 01:45:04 01:49:22 70° 257° (WSW) 01:53:43 .
RS-15 19 Dec 01:48:50 01:55:31 18° 265° (W) 02:02:04 29.354- 29.394
BEESAT 19 Dec 01:54:30 01:58:33 29° 63° (ENE) 02:02:37 436.000
BEESAT 2 19 Dec 02:06:24 02:08:01 12° 21° (NNE) 02:09:36 435.950
POLYITAN 1 19 Dec 02:09:03 02:11:11 14° 302° (WNW) 02:13:19 437.675
DX 1 19 Dec 02:11:33 02:15:12 26° 265° (W) 02:18:53 434.975-435.025
ITUPSAT 1 19 Dec 02:25:20 02:29:55 51° 69° (ENE) 02:34:32 437.325
PCSat 19 Dec 02:26:46 02:32:12 68° 52° (NE) 02:37:36 145.827
Gurwin Techsat 1B 19 Dec 02:27:14 02:32:36 85° 105° (ESE) 02:37:55 435.225
CUBESAT XI-V 19 Dec 02:29:24 02:33:05 23° 62° (ENE) 02:36:47 437.345
MOZHAYETS 4 19 Dec 02:29:49 02:34:22 77° 74° (ENE) 02:38:58
DUCHIFAT 1 19 Dec 02:33:57 02:34:39 10° 305° (NW) 02:35:20 145.980
AO-7 19 Dec 02:42:54 02:49:30 25° 91° (E) 02:56:04 .
Oscar 19 19 Dec 02:48:20 02:53:21 50° 292° (WNW) 02:58:22 437.125/150
BEESAT 3 19 Dec 02:51:43 02:55:28 39° 43° (NE) 02:59:09 437.485
AO-91 19 Dec 02:51:51 02:54:50 27° 292° (WNW) 02:57:45 145.960
BUGSAT 1 19 Dec 02:54:11 02:57:06 19° 298° (WNW) 03:00:01 437.445
YUBILEINY 19 Dec 02:56:26 03:05:13 75° 95° (E) 03:14:03 435.215
AO-85 19 Dec 03:00:48 03:03:24 15° 22° (NNE) 03:06:06 145.980
M-CUBED/EXP-1 PRIME 19 Dec 03:22:17 03:25:23 19° 95° (E) 03:28:22 437.505
BEESAT 19 Dec 03:31:43 03:36:11 40° 262° (W) 03:40:41 436.000
BEESAT 2 19 Dec 03:43:00 03:46:49 39° 43° (NE) 03:50:35 435.950
KKS-1 19 Dec 03:46:30 03:50:14 27° 64° (ENE) 03:53:59 437.445
ITUPSAT 1 19 Dec 04:04:21 04:08:01 22° 267° (W) 04:11:44 437.325
CUBESAT XI-V 19 Dec 04:05:36 04:10:09 50° 261° (W) 04:14:45 437.345
Gurwin Techsat 1B 19 Dec 04:08:24 04:11:53 18° 304° (NW) 04:15:22 435.225
MOZHAYETS 4 19 Dec 04:09:47 04:12:06 14° 272° (W) 04:14:25
ITAMSAT 1 19 Dec 04:10:22 04:15:31 63° 102° (ESE) 04:20:38 435.822/435.867
PCSat 19 Dec 04:10:57 04:15:07 23° 252° (WSW) 04:19:15 145.827
STARS 19 Dec 04:16:20 04:19:45 23° 62° (ENE) 04:23:11 437.465
BEESAT 3 19 Dec 04:29:30 04:32:52 27° 243° (WSW) 04:36:10 437.485
AO-7 19 Dec 04:34:49 04:43:14 85° 292° (WNW) 04:51:38 .
AO-85 19 Dec 04:40:26 04:44:54 44° 43° (NE) 04:49:43 145.980
YUBILEINY 19 Dec 04:55:24 05:02:56 30° 298° (WNW) 05:10:32 435.215
M-CUBED/EXP-1 PRIME 19 Dec 04:55:43 05:00:08 56° 295° (WNW) 05:04:15 437.505
DOVE 4 19 Dec 05:01:32 05:05:48 43° 98° (E) 05:09:50 437.250
BEESAT 2 19 Dec 05:20:56 05:24:25 29° 243° (WSW) 05:27:53 435.950
KKS-1 19 Dec 05:22:29 05:26:39 38° 262° (W) 05:30:50 437.445
FO-29 19 Dec 05:25:15 05:29:26 16° 46° (NE) 05:33:30 435.910
NUDT-PHONESAT 19 Dec 05:36:38 05:38:14 12° 89° (E) 05:39:49 437.300
LilacSat-2 19 Dec 05:44:26 05:47:38 24° 94° (E) 05:50:47 437.200
KAITUO 1B 19 Dec 05:48:12 05:50:49 18° 91° (E) 05:53:25 145.475/437.950
ITAMSAT 1 19 Dec 05:50:37 05:54:34 23° 301° (WNW) 05:58:30 435.822/435.867
STARS 19 Dec 05:51:37 05:55:50 45° 261° (W) 06:00:04 437.465
XW-2D 19 Dec 05:52:02 05:55:22 27° 95° (E) 05:58:40 145.860 - 145.880
HO-68 19 Dec 06:01:31 06:06:12 18° 87° (E) 06:10:50 435.675
XW-2B 19 Dec 06:07:54 06:11:32 38° 97° (E) 06:15:08 145.730 - 145.750
CUTE-I 19 Dec 06:10:11 06:15:02 35° 96° (E) 06:19:51 437.470
NO-84 19 Dec 06:13:20 06:16:19 72° 147° (SSE) 06:19:33 435.350 FM
XW-2F 19 Dec 06:15:36 06:19:18 44° 99° (E) 06:22:57 145.980 - 146.000
AO-85 19 Dec 06:20:57 06:25:19 35° 241° (WSW) 06:29:55 145.980
STRAND 1 19 Dec 06:22:32 06:27:29 52° 69° (ENE) 06:32:26 437.568
AO-7 19 Dec 06:28:27 06:34:58 26° 314° (NW) 06:41:30 .
M-CUBED/EXP-1 PRIME 19 Dec 06:32:55 06:33:29 10° 315° (NW) 06:34:04 437.505
XW-2C 19 Dec 06:35:29 06:39:22 81° 103° (ESE) 06:43:13 145.795 - 145.815
DOVE 4 19 Dec 06:39:45 06:43:14 23° 298° (WNW) 06:46:34 437.250
SEEDS 19 Dec 06:47:32 06:50:37 19° 91° (E) 06:53:39 437.485
FO-29 19 Dec 07:05:21 07:12:55 54° 66° (ENE) 07:20:18 435.910
NUDT-PHONESAT 19 Dec 07:08:44 07:12:27 61° 287° (WNW) 07:16:09 437.300
UWE-3 19 Dec 07:11:21 07:14:36 20° 92° (E) 07:17:54 435.000/436.395/437.385
LilacSat-2 19 Dec 07:18:26 07:21:56 32° 292° (WNW) 07:25:25 437.200
CUTE 1.7 + AOD 2 19 Dec 07:19:18 07:23:35 62° 101° (E) 07:27:49 437.475
CUBEBUG 2 19 Dec 07:21:22 07:25:27 41° 98° (E) 07:29:37 437.445
KAITUO 1B 19 Dec 07:21:23 07:25:00 42° 289° (WNW) 07:28:34 145.475/437.950
ZACube-1 19 Dec 07:25:47 07:28:30 16° 90° (E) 07:31:14 437.345
XW-2D 19 Dec 07:26:10 07:29:30 28° 293° (WNW) 07:32:49 145.860 - 145.880
O/OREOS (USA 219) 19 Dec 07:35:26 07:39:45 42° 109° (ESE) 07:44:04 437.305
Oscar 11 19 Dec 07:37:49 07:39:29 12° 87° (E) 07:41:08 .
XW-2B 19 Dec 07:42:33 07:45:29 21° 296° (WNW) 07:48:23 145.730 - 145.750
HO-68 19 Dec 07:47:45 07:54:59 84° 106° (ESE) 08:02:09 435.675
CUTE-I 19 Dec 07:50:13 07:55:08 39° 295° (WNW) 08:00:00 437.470
XW-2F 19 Dec 07:50:24 07:53:06 18° 297° (WNW) 07:55:47 145.980 - 146.000
NO-84 19 Dec 07:50:54 07:53:47 32° 347° (NNW) 07:56:53 435.350 FM
AO-73 19 Dec 07:55:53 07:59:40 27° 94° (E) 08:03:28 145.935
XW-2A 19 Dec 08:00:53 08:04:12 44° 99° (E) 08:07:30 145.665 - 145.685
STRAND 1 19 Dec 08:02:50 08:06:57 24° 267° (W) 08:11:05 437.568
XW-2C 19 Dec 08:11:35 08:12:56 12° 301° (WNW) 08:14:18 145.795 - 145.815
TIGRISAT 19 Dec 08:11:41 08:14:56 22° 63° (ENE) 08:18:12 435.000
UNISAT 6 19 Dec 08:16:01 08:19:33 26° 65° (ENE) 08:23:04 437.425
SEEDS 19 Dec 08:22:27 08:26:33 48° 289° (WNW) 08:30:36 437.485
AAUSAT CUBESAT 2 19 Dec 08:26:04 08:30:16 87° 104° (ESE) 08:34:24 437.432
DELFI C3 19 Dec 08:43:52 08:44:50 11° 87° (E) 08:45:47 145.870
UWE-3 19 Dec 08:47:06 08:51:17 48° 289° (WNW) 08:55:35 435.000/436.395/437.385
FO-29 19 Dec 08:50:43 08:58:03 42° 265° (W) 09:05:18 435.910
CUTE 1.7 + AOD 2 19 Dec 08:56:11 08:58:57 17° 299° (WNW) 09:01:42 437.475
CUBEBUG 2 19 Dec 08:58:25 09:01:53 24° 295° (WNW) 09:05:25 437.445
PRISM 19 Dec 09:00:02 09:03:19 23° 63° (ENE) 09:06:37 437.425
ZACube-1 19 Dec 09:00:50 09:05:10 64° 287° (WNW) 09:09:35 437.345
Oscar 11 19 Dec 09:11:49 09:16:12 82° 287° (WNW) 09:20:34 .
O/OREOS (USA 219) 19 Dec 09:15:22 09:19:19 28° 308° (NW) 09:23:16 437.305
AIST 2D 19 Dec 09:24:20 09:25:56 13° 61° (ENE) 09:27:32 435.315
Max Valier Satellite 19 Dec 09:24:43 09:27:33 20° 93° (E) 09:30:22 145.860
NO-84 19 Dec 09:28:40 09:31:40 29° 9° (N) 09:34:52 435.350 FM
AO-73 19 Dec 09:31:55 09:35:57 36° 292° (WNW) 09:40:02 145.935
XW-2A 19 Dec 09:34:32 09:36:33 15° 297° (WNW) 09:38:34 145.665 - 145.685
HO-68 19 Dec 09:36:22 09:41:58 26° 308° (NW) 09:47:32 435.675
ISS 19 Dec 09:38:52 09:40:31 13° 136° (SE) 09:42:10 437.550
EO-88 19 Dec 09:40:56 09:43:46 21° 93° (E) 09:46:34 145.990 - 145.960
TIGRISAT 19 Dec 09:47:19 09:51:23 44° 261° (W) 09:55:29 435.000
UNISAT 6 19 Dec 09:52:11 09:56:08 36° 263° (W) 10:00:05 437.425
POLYITAN 1 19 Dec 09:54:45 09:56:35 13° 58° (ENE) 09:58:26 437.675
AAUSAT CUBESAT 2 19 Dec 10:03:21 10:05:04 12° 302° (WNW) 10:06:46 437.432
nSIGHT-1 19 Dec 10:13:32 10:16:23 29° 145° (SE) 10:19:15 .
DELFI C3 19 Dec 10:16:09 10:20:06 77° 286° (WNW) 10:24:00 145.870
DUCHIFAT 1 19 Dec 10:16:56 10:19:29 16° 60° (ENE) 10:22:02 145.980
QB50P2 19 Dec 10:19:09 10:22:27 23° 64° (ENE) 10:25:46 145.880/145.840
ESTCUBE 1 19 Dec 10:30:39 10:31:24 10° 86° (E) 10:32:08 437.505/2401.250
PRISM 19 Dec 10:34:27 10:38:22 40° 261° (W) 10:42:19 437.425
NANOSAT C BR1 19 Dec 10:44:54 10:48:37 32° 67° (ENE) 10:52:21 145.865
Oscar 11 19 Dec 10:50:02 10:51:37 12° 304° (WNW) 10:53:11 .
AIST 2D 19 Dec 10:55:09 10:58:37 59° 259° (W) 11:02:09 435.315
Oscar 19 19 Dec 10:55:45 10:56:36 10° 49° (NE) 10:57:28 437.125/150
Max Valier Satellite 19 Dec 10:58:01 11:01:28 35° 290° (WNW) 11:04:54 145.860
EO-79 19 Dec 11:03:15 11:07:19 54° 72° (ENE) 11:11:26 145.935-145.965
NO-84 19 Dec 11:05:47 11:09:18 73° 29° (NNE) 11:13:06 435.350 FM
YUBILEINY 19 Dec 11:07:22 11:10:38 12° 42° (NE) 11:13:53 435.215
ISS 19 Dec 11:13:13 11:16:29 64° 154° (SSE) 11:19:45 437.550
EO-88 19 Dec 11:14:08 11:17:29 33° 291° (WNW) 11:20:48 145.990 - 145.960
